Regional Weather Roundup
Issued by NWS

Home | Current Version | Previous Version | Graphics & Text | Print | Product List | Glossary On
Versions: 1 2 3 4 5 6 7 8 9 10 11 12 13 14 15 16 17 18 19 20 21 22 23 24 25 26 27 28 29 30 31 32 33 34 35 36 37 38 39 40 41 42 43 44 45 46 47 48 49 50
000
ASUS43 KLSX 141857
RWRMO

WEATHER SUMMARY FOR MISSOURI
NATIONAL WEATHER SERVICE SPRINGFIELD MO
100 PM CST SUN FEB 14 2016

NOTE: "FAIR" INDICATES FEW OR NO CLOUDS BELOW 12,000 FEET WITH NO
       SIGNIFICANT WEATHER AND/OR OBSTRUCTIONS TO VISIBILITY.
       CURRENT SKY AND/OR WEATHER CONDITIONS ARE NOT AVAILABLE FOR
       CHILLICOTHE AND FARMINGTON.

MOZ001>031-035>038-043-044-053-054-142000-
...NORTHERN AND WESTERN MISSOURI...

CITY           SKY/WX    TMP DP  RH WIND       PRES   REMARKS
KANSAS CTY INT MOSUNNY   45  23  42 SW9       29.88F
LEE`S SUMMIT   SUNNY     43  26  51 SW15      29.89F
ST JOSEPH      CLOUDY    44  21  40 SW12      29.88F
CHILLICOTHE      N/A     36  25  64 S13       29.90F WCI  27

$$
MOZ066>068-077>081-088>096-101>105-142000-
...SOUTHWEST MISSOURI...

CITY           SKY/WX    TMP DP  RH WIND       PRES   REMARKS
SPRINGFIELD    CLOUDY    33  25  72 S14       29.93F WCI  23
JOPLIN         SUNNY     49  37  63 SW9       29.93F

$$
MOZ032>034-039>042-045>050-055>058-069>072-142000-
...CENTRAL MISSOURI...

CITY           SKY/WX    TMP DP  RH WIND       PRES   REMARKS
COLUMBIA       NOT AVBL
JEFFERSON CITY CLOUDY    30  25  81 S14       29.97F WCI  19
ROLLA          CLOUDY    27  24  89 S16       29.94F WCI  15
SEDALIA        CLOUDY    34  28  79 SW12      29.93F WCI  25
WHITEMAN AFB   PTSUNNY   36  32  87 S13       29.90F WCI  27

$$
MOZ051-052-059>065-142000-
...EAST CENTRAL MISSOURI...

CITY           SKY/WX    TMP DP  RH WIND       PRES   REMARKS
ST LOUIS INTL  CLOUDY    25  19  78 SE13G20   30.04F WCI  14

$$
MOZ072>076-082>087-097>100-106>115-142000-
...SOUTH CENTRAL AND SOUTHEAST MISSOURI...

CITY           SKY/WX    TMP DP  RH WIND       PRES   REMARKS
CAPE GIRARDEAU CLOUDY    27  24  89 SE12      30.08F FOG     WCI  17
POPLAR BLUFF   CLOUDY    28  25  88 CALM      30.08F FOG
WEST PLAINS    CLOUDY    26  23  88 S10       29.99F WCI  16

$$


USA.gov is the U.S. government's official web portal to all federal, state and local government web resources and services.